Wetterstats.de || Aktuelle Messwerte || Aktuelle Wetterkarten NEU! || Radar / Satellit NEU! || Wetterarchiv || Langzeitwerte NEU! || Klim. Kenntage || Met. Ereignisse || Agrarwerte || Echtzeitwerte

Monatsübersicht für Juni 2020 Diagramm
 
Wetter Information zur Wetteranzeige
Zeitraffer
Tageslänge (hh:mm)
Höchsttemperatur in °C
Uhrzeit
Tiefsttemperatur in °C
Uhrzeit
Luftfeuchte (max., in %)
Uhrzeit
Luftfeuchte (min., in %)
Uhrzeit
Luftdruck (max., in hPa)
Uhrzeit
Luftdruck (min., in hPa)
Uhrzeit
Luftdruck (Ø, in hPa)
Regenrate (max, mm/h)
Uhrzeit
Niederschlag in mm
Verdunstung in mm
Solar in W/m² (Ø)
Solar in W/m² (max.)
UV-Index (max.)
Sonnenscheindauer (hh:mm)
Windrichtung (Ø)
Windstärke (Ø in km/h)
Windstärke (Ø in bft)
Windböe (max., in km/h)
Uhrzeit
Windböe (max., in bft)
Uhrzeit
Taupunkt (max., in °C)
Uhrzeit
Taupunkt (min., in °C)
Uhrzeit
Windchill (min., in °C)
Uhrzeit
Gewitterindex (max.)
Uhrzeit
Waldbrandindex (max.)
Uhrzeit
Graslandfeuerindex (max.)
Uhrzeit
Staubsturm-Index (max.)
Uhrzeit
01
Zeitraffer
16:35
24.6
15:55 Uhr
6.9
04:50 Uhr

91
04:35 Uhr
32
14:00 Uhr
1022.7
08:45 Uhr

1019.8
19:00 Uhr
1021.4
0,000
00:10 Uhr
0,000
4.928
423
802
13:10 Uhr
5.5
12:40 Uhr

10:55:00
3,6
1
27,4
16:25 Uhr

4
10.0
09:40 Uhr
5.5
04:55 Uhr
6.9
04:50 Uhr
0
00:10 Uhr

00:00 Uhr

00:00 Uhr

00:00 Uhr
02
Zeitraffer
16:37
27.3
15:45 Uhr
8.1
05:30 Uhr

84
05:20 Uhr
35
17:20 Uhr
1020.4
00:05 Uhr

1009.7
23:45 Uhr
1015.4
0,000
00:05 Uhr
0,000
4.115
321
900
13:15 Uhr
5.3
12:55 Uhr

07:25:00
2,9
1
30,6
15:00 Uhr

5
12.8
17:00 Uhr
5.5
04:25 Uhr
8.1
05:30 Uhr
4
17:00 Uhr

00:00 Uhr

00:00 Uhr

00:00 Uhr
03
Zeitraffer
16:39
25.4
16:40 Uhr
8.9
05:10 Uhr

90
05:20 Uhr
26
15:10 Uhr
1009.7
00:05 Uhr

1000.9
23:15 Uhr
1005.2
0,000
00:05 Uhr
0,000
4.166
418
800
12:55 Uhr
5.1
12:30 Uhr

10:59:00
1,2
0
19,3
14:05 Uhr

3
10.2
00:05 Uhr
3.4
13:30 Uhr
8.9
05:10 Uhr
2
00:05 Uhr

00:00 Uhr

00:00 Uhr

00:00 Uhr
04
Zeitraffer
16:41
25.8
14:50 Uhr
11.2
02:25 Uhr

91
23:00 Uhr
33
12:30 Uhr
1000.8
00:05 Uhr

991.3
23:15 Uhr
995.4
2,400
21:20 Uhr
0,600
3.734
294
884
12:20 Uhr
4.8
12:05 Uhr

05:20:00
3,5
1
27,4
11:15 Uhr

4
14.3
19:05 Uhr
7.5
01:55 Uhr
11.2
02:25 Uhr
8
22:05 Uhr

00:00 Uhr

00:00 Uhr

00:00 Uhr
05
Zeitraffer
16:43
18.8
14:20 Uhr
11.7
23:55 Uhr

93
01:05 Uhr
47
19:20 Uhr
995.2
11:30 Uhr

990.7
01:30 Uhr
993.5
2,400
07:20 Uhr
0,600
2.515
229
1057
14:35 Uhr
5.6
12:50 Uhr

02:45:00
3,8
1
27,4
13:45 Uhr

4
14.3
00:05 Uhr
6.0
19:30 Uhr
10.2
23:30 Uhr
8
00:05 Uhr

00:00 Uhr

00:00 Uhr

00:00 Uhr
06
Zeitraffer
16:44
20.3
17:30 Uhr
9.4
05:05 Uhr

89
00:20 Uhr
45
16:15 Uhr
1004.6
23:15 Uhr

994.6
00:05 Uhr
1000.8
2,400
10:05 Uhr
0,200
3.429
311
1115
14:25 Uhr
5.8
14:00 Uhr

05:40:00
4,6
1
33,8
10:05 Uhr

5
9.9
00:40 Uhr
5.4
13:00 Uhr
9.4
05:05 Uhr
2
00:05 Uhr

00:00 Uhr

00:00 Uhr

00:00 Uhr
07
Zeitraffer
16:45
18.4
13:40 Uhr
7.7
04:50 Uhr

92
23:20 Uhr
71
13:45 Uhr
1009.4
23:30 Uhr

1004.6
00:05 Uhr
1006.6
2,400
10:00 Uhr
1,000
1.092
138
543
13:40 Uhr
4.7
13:35 Uhr

00:10:00
0,5
0
19,3
15:25 Uhr

3
13.9
15:05 Uhr
6.2
04:00 Uhr
7.7
04:50 Uhr
5
12:45 Uhr

00:00 Uhr

00:00 Uhr

00:00 Uhr
08
Zeitraffer
16:46
21.9
16:50 Uhr
10.1
23:50 Uhr

94
02:45 Uhr
40
17:30 Uhr
1014.0
22:45 Uhr

1009.3
01:45 Uhr
1011.6
2,400
00:50 Uhr
1,400
2.667
338
1064
13:25 Uhr
5.7
13:20 Uhr

04:45:00
1,1
0
16,1
10:55 Uhr

3
12.9
08:35 Uhr
7.2
17:30 Uhr
10.1
23:50 Uhr
4
00:05 Uhr

00:00 Uhr

00:00 Uhr

00:00 Uhr
09
Zeitraffer
16:48
23.6
12:45 Uhr
8.8
02:00 Uhr

93
03:20 Uhr
43
12:20 Uhr
1015.4
10:15 Uhr

1013.5
18:45 Uhr
1014.4
0,000
00:05 Uhr
0,000
2.794
261
1006
13:05 Uhr
5.5
12:45 Uhr

05:25:00
1,3
0
19,3
13:15 Uhr

3
12.8
09:15 Uhr
7.6
02:00 Uhr
8.8
02:00 Uhr
4
09:00 Uhr

00:00 Uhr

00:00 Uhr

00:00 Uhr
10
Zeitraffer
16:49
24.0
15:10 Uhr
10.2
05:15 Uhr

89
05:40 Uhr
41
13:40 Uhr
1014.5
00:05 Uhr

1010.3
18:15 Uhr
1012.4
0,000
00:05 Uhr
0,000
4.064
366
902
11:50 Uhr
5.5
12:45 Uhr

08:10:00
3,1
1
25,7
10:45 Uhr

4
14.1
23:35 Uhr
8.3
05:00 Uhr
10.2
05:15 Uhr
8
23:05 Uhr

00:00 Uhr

00:00 Uhr

00:00 Uhr
11
Zeitraffer
16:50
23.1
17:25 Uhr
15.3
03:35 Uhr

94
05:05 Uhr
72
17:35 Uhr
1010.4
00:05 Uhr

1008.3
18:00 Uhr
1009.3
2,400
04:25 Uhr
1,400
1.448
144
723
15:40 Uhr
3.8
14:05 Uhr

01:15:00
0,8
0
16,1
00:30 Uhr

3
18.6
15:35 Uhr
14.0
00:05 Uhr
15.3
03:35 Uhr
10
15:35 Uhr

00:00 Uhr

00:00 Uhr

00:00 Uhr
12
Zeitraffer
16:51
30.2
16:50 Uhr
15.1
02:20 Uhr

94
04:05 Uhr
46
16:55 Uhr
1011.2
08:45 Uhr

1008.1
17:30 Uhr
1009.6
0,000
00:05 Uhr
0,000
3.505
327
934
12:45 Uhr
5.3
12:45 Uhr

06:20:00
1,3
0
17,7
16:40 Uhr

3
19.5
11:50 Uhr
13.8
02:20 Uhr
15.1
02:20 Uhr
12
22:15 Uhr

00:00 Uhr

00:00 Uhr

00:00 Uhr
13
Zeitraffer
16:52
35.4
14:50 Uhr
17.1
05:00 Uhr

93
04:35 Uhr
37
16:05 Uhr
1012.3
17:45 Uhr

1006.7
16:00 Uhr
1009.4
13,200
17:55 Uhr
15,600
3.556
369
914
15:10 Uhr
5.1
13:10 Uhr

05:35:00
1,9
0
37,0
17:50 Uhr

5
22.3
12:15 Uhr
15.4
16:05 Uhr
17.1
05:00 Uhr
13
09:45 Uhr

00:00 Uhr

00:00 Uhr

00:00 Uhr
14
Zeitraffer
16:53
26.9
16:00 Uhr
15.7
22:55 Uhr

94
03:15 Uhr
43
18:40 Uhr
1011.9
23:45 Uhr

1009.9
00:05 Uhr
1010.7
2,400
00:35 Uhr
0,200
3.124
284
1006
13:30 Uhr
6.1
12:25 Uhr

04:55:00
1,2
0
17,7
08:45 Uhr

3
18.3
08:25 Uhr
11.8
18:40 Uhr
15.7
22:55 Uhr
12
02:05 Uhr

00:00 Uhr

00:00 Uhr

00:00 Uhr
15
Zeitraffer
16:53
25.4
16:10 Uhr
11.3
04:20 Uhr

93
05:40 Uhr
38
14:10 Uhr
1014.4
23:45 Uhr

1011.8
00:45 Uhr
1013.0
0,000
00:05 Uhr
0,000
4.420
407
934
14:15 Uhr
5.8
12:35 Uhr

10:15:00
1,5
0
20,9
14:50 Uhr

4
14.3
10:00 Uhr
9.8
14:10 Uhr
11.3
04:20 Uhr
5
00:05 Uhr

00:00 Uhr

00:00 Uhr

00:00 Uhr


 
Wetter Information zur Wetteranzeige
Zeitraffer
Tageslänge (hh:mm)
Höchsttemperatur in °C
Uhrzeit
Tiefsttemperatur in °C
Uhrzeit
Luftfeuchte (max., in %)
Uhrzeit
Luftfeuchte (min., in %)
Uhrzeit
Luftdruck (max., in hPa)
Uhrzeit
Luftdruck (min., in hPa)
Uhrzeit
Luftdruck (Ø, in hPa)
Regenrate (max, mm/h)
Uhrzeit
Niederschlag in mm
Verdunstung in mm
Solar in W/m² (Ø)
Solar in W/m² (max.)
UV-Index (max.)
Sonnenscheindauer (hh:mm)
Windrichtung (Ø)
Windstärke (Ø in km/h)
Windstärke (Ø in bft)
Windböe (max., in km/h)
Uhrzeit
Windböe (max., in bft)
Uhrzeit
Taupunkt (max., in °C)
Uhrzeit
Taupunkt (min., in °C)
Uhrzeit
Windchill (min., in °C)
Uhrzeit
Gewitterindex (max.)
Uhrzeit
Waldbrandindex (max.)
Uhrzeit
Graslandfeuerindex (max.)
Uhrzeit
Staubsturm-Index (max.)
Uhrzeit
16
Zeitraffer
16:54
26.1
16:30 Uhr
10.1
04:50 Uhr

93
05:00 Uhr
43
19:00 Uhr
1014.5
00:15 Uhr

1011.0
19:30 Uhr
1013.0
0,000
00:05 Uhr
0,000
3.175
285
965
12:20 Uhr
5.6
12:20 Uhr

05:50:00
0,4
0
9,7
12:40 Uhr

2
14.4
20:40 Uhr
8.9
04:40 Uhr
10.1
04:50 Uhr
7
22:15 Uhr

00:00 Uhr

00:00 Uhr

00:00 Uhr
17
Zeitraffer
16:54
28.7
15:05 Uhr
12.1
04:35 Uhr

93
04:55 Uhr
40
17:30 Uhr
1011.9
00:05 Uhr

1007.6
20:30 Uhr
1010.0
0,000
00:05 Uhr
0,000
3.200
276
979
14:10 Uhr
4.8
12:00 Uhr

05:05:00
0,4
0
16,1
13:00 Uhr

3
16.3
09:05 Uhr
10.9
04:30 Uhr
12.1
04:35 Uhr
9
22:30 Uhr

00:00 Uhr

00:00 Uhr

00:00 Uhr
18
Zeitraffer
16:54
24.8
16:05 Uhr
15.9
04:25 Uhr

88
04:25 Uhr
55
15:55 Uhr
1008.8
23:30 Uhr

1007.6
04:00 Uhr
1008.1
0,000
00:05 Uhr
0,000
2.337
204
828
10:30 Uhr
3.5
10:30 Uhr

01:15:00
1,0
0
19,3
18:55 Uhr

3
17.6
14:00 Uhr
13.8
04:10 Uhr
15.9
04:25 Uhr
9
00:05 Uhr

00:00 Uhr

00:00 Uhr

00:00 Uhr
19
Zeitraffer
16:55
21.2
16:45 Uhr
15.9
04:45 Uhr

92
22:15 Uhr
72
16:50 Uhr
1012.4
21:45 Uhr

1008.7
00:05 Uhr
1010.4
2,400
21:35 Uhr
0,400
1.321
127
315
11:00 Uhr
2.2
13:35 Uhr

00:00:00
1,1
0
19,3
17:50 Uhr

3
16.5
12:40 Uhr
13.9
04:10 Uhr
15.9
04:45 Uhr
9
00:05 Uhr

00:00 Uhr

00:00 Uhr

00:00 Uhr
20
Zeitraffer
16:55
18.0
12:35 Uhr
14.9
15:55 Uhr

94
05:10 Uhr
80
12:35 Uhr
1016.1
21:45 Uhr

1012.4
00:05 Uhr
1014.1
2,400
04:10 Uhr
1,400
0.762
77
220
13:45 Uhr
1.8
13:45 Uhr

00:00:00
4,0
1
30,6
13:00 Uhr

5
15.7
09:50 Uhr
13.0
15:25 Uhr
12.1
15:25 Uhr
9
00:05 Uhr

00:00 Uhr

00:00 Uhr

00:00 Uhr
21
Zeitraffer
16:55
17.6
17:15 Uhr
14.5
05:10 Uhr

95
23:25 Uhr
90
09:30 Uhr
1017.9
22:15 Uhr

1015.1
04:00 Uhr
1016.3
4,800
13:25 Uhr
6,800
0.533
60
130
17:10 Uhr
0.9
10:25 Uhr

00:00:00
1,8
0
25,7
01:15 Uhr

4
16.6
17:15 Uhr
13.4
04:45 Uhr
14.4
04:35 Uhr
9
22:20 Uhr

00:00 Uhr

00:00 Uhr

00:00 Uhr
22
Zeitraffer
16:54
27.7
14:20 Uhr
11.8
05:05 Uhr

96
06:25 Uhr
42
14:05 Uhr
1022.3
23:45 Uhr

1017.5
02:00 Uhr
1019.2
0,000
00:05 Uhr
0,000
4.115
360
944
13:40 Uhr
5.3
13:15 Uhr

08:30:00
2,4
1
24,1
18:15 Uhr

4
16.7
11:50 Uhr
10.3
23:35 Uhr
11.8
05:05 Uhr
9
00:05 Uhr

00:00 Uhr

00:00 Uhr

00:00 Uhr
23
Zeitraffer
16:54
24.6
16:50 Uhr
9.1
04:40 Uhr

93
05:20 Uhr
37
16:55 Uhr
1024.0
23:45 Uhr

1022.4
00:05 Uhr
1023.2
0,000
00:05 Uhr
0,000
5.004
445
1057
14:20 Uhr
6.0
13:00 Uhr

11:35:00
2,6
1
24,1
10:50 Uhr

4
13.1
09:05 Uhr
7.8
05:00 Uhr
9.1
04:40 Uhr
4
08:45 Uhr

00:00 Uhr

00:00 Uhr

00:00 Uhr
24
Zeitraffer
16:54
23.4
16:40 Uhr
8.8
04:45 Uhr

94
23:35 Uhr
59
13:05 Uhr
1024.2
00:30 Uhr

1021.8
23:30 Uhr
1023.2
2,400
20:35 Uhr
0,800
2.337
234
1189
12:55 Uhr
4.3
12:45 Uhr

03:15:00
1,2
0
24,1
13:50 Uhr

4
17.3
21:55 Uhr
7.4
04:45 Uhr
8.8
04:45 Uhr
11
22:20 Uhr

00:00 Uhr

00:00 Uhr

00:00 Uhr
25
Zeitraffer
16:53
28.2
16:20 Uhr
17.7
00:05 Uhr

94
00:10 Uhr
50
16:50 Uhr
1022.1
00:05 Uhr

1019.1
19:15 Uhr
1020.5
0,000
00:05 Uhr
0,000
4.013
362
925
11:15 Uhr
5.2
12:40 Uhr

07:20:00
1,9
0
19,3
11:40 Uhr

3
19.0
09:40 Uhr
15.1
18:20 Uhr
17.7
00:05 Uhr
11
00:05 Uhr

00:00 Uhr

00:00 Uhr

00:00 Uhr
26
Zeitraffer
16:53
28.6
12:15 Uhr
15.3
05:15 Uhr

93
04:35 Uhr
53
18:45 Uhr
1019.6
00:05 Uhr

1010.8
23:45 Uhr
1014.8
9,600
18:35 Uhr
3,400
2.921
266
920
12:10 Uhr
4.5
12:05 Uhr

06:00:00
0,8
0
19,3
12:45 Uhr

3
21.9
14:55 Uhr
14.2
04:25 Uhr
15.3
05:15 Uhr
13
14:50 Uhr

00:00 Uhr

00:00 Uhr

00:00 Uhr
27
Zeitraffer
16:52
31.8
15:50 Uhr
15.5
04:20 Uhr

94
04:55 Uhr
38
16:20 Uhr
1010.8
00:05 Uhr

1007.3
17:30 Uhr
1009.2
0,000
00:05 Uhr
0,000
3.785
315
906
13:50 Uhr
5.3
12:40 Uhr

07:00:00
1,1
0
24,1
14:45 Uhr

4
19.9
18:30 Uhr
14.4
04:15 Uhr
15.5
04:20 Uhr
13
22:40 Uhr

00:00 Uhr

00:00 Uhr

00:00 Uhr
28
Zeitraffer
16:52
30.8
13:55 Uhr
18.4
23:50 Uhr

89
23:45 Uhr
42
14:00 Uhr
1012.5
22:30 Uhr

1009.1
00:05 Uhr
1010.8
0,000
00:05 Uhr
0,000
3.683
299
1069
13:50 Uhr
6.4
13:10 Uhr

06:15:00
2,3
1
30,6
14:30 Uhr

5
20.2
16:50 Uhr
16.3
14:00 Uhr
18.4
23:50 Uhr
12
00:05 Uhr

00:00 Uhr

00:00 Uhr

00:00 Uhr
29
Zeitraffer
16:51
25.6
16:15 Uhr
14.8
22:30 Uhr

92
22:20 Uhr
40
16:20 Uhr
1012.7
01:15 Uhr

1008.2
16:30 Uhr
1010.5
2,400
17:30 Uhr
0,400
2.565
249
972
14:25 Uhr
5.5
13:50 Uhr

03:35:00
0,8
0
32,2
17:05 Uhr

5
16.6
00:10 Uhr
10.5
16:30 Uhr
14.8
22:30 Uhr
10
00:05 Uhr

00:00 Uhr

00:00 Uhr

00:00 Uhr
30
Zeitraffer
16:50
25.4
16:35 Uhr
11.8
03:25 Uhr

93
02:30 Uhr
34
17:10 Uhr
1008.7
00:05 Uhr

1006.2
18:30 Uhr
1007.5
0,000
00:05 Uhr
0,000
4.978
409
925
12:30 Uhr
6.1
13:35 Uhr

09:50:00
4,7
1
38,6
11:00 Uhr

5
13.4
00:05 Uhr
8.0
17:25 Uhr
11.8
03:25 Uhr
6
00:05 Uhr

00:00 Uhr

00:00 Uhr

00:00 Uhr
Stationsstandorte || Wetterblog || Wissenswertes || Downloads || Seitenhistorie || Partner || Impressum / Datenschutz